Regional Weather Roundup
Issued by NWS

Home | Current Version | Previous Version | Text Only | Print | Product List | Glossary On
Versions: 1 2 3 4 5 6 7 8 9 10 11 12 13 14 15 16 17 18 19 20 21 22 23 24 25 26 27 28 29 30 31 32 33 34 35 36 37 38 39 40 41 42 43 44 45 46 47 48 49 50
000
ASUS45 KBOU 222010
RWRCO

WEATHER ROUNDUP FOR COLORADO
NATIONAL WEATHER SERVICE DENVER/BOULDER CO
200 PM MDT SUN APR 22 2018

NOTE: "FAIR" INDICATES FEW OR NO CLOUDS BELOW 12000 FEET WITH NO
SIGNIFICANT WEATHER AND/OR OBSTRUCTIONS TO VISIBILITY.

COZ001>005-013-030-031-222100-
...NORTHWEST COLORADO...

CITY           SKY/WX    TMP DP  RH WIND       PRES   REMARKS
CRAIG          FAIR      63  31  30 W5        30.16F
HAYDEN         FAIR      59  30  33 NW3       30.18F
MEEKER         FAIR      63  33  32 W6        30.15F
RANGELY        FAIR      67  30  25 SW3       30.11F
RABBIT EARS PA FAIR      41  32  70 W3        30.33S
STEAMBOAT SPGS FAIR      57  34  40 CALM      30.18F
WALDEN         FAIR      57  23  26 S7        30.23F
$$

COZ006>008-011-222100-
...WEST CENTRAL VALLEYS...

CITY           SKY/WX    TMP DP  RH WIND       PRES   REMARKS
GRAND JUNCTION FAIR      71  33  24 SE9       30.09F
MONTROSE       FAIR      66  30  26 CALM      30.13F
EAGLE          FAIR      60  32  34 SE3       30.19F
RIFLE          FAIR      65  36  34 S5        30.13F
DELTA          FAIR      69  30  23 NE3       30.12F
NUCLA          FAIR      70  23  17 W8        30.14F
$$

COZ017>023-064>068-222100-
...SOUTHWEST COLORADO...

CITY           SKY/WX    TMP DP  RH WIND       PRES   REMARKS
DURANGO        FAIR      66  16  14 VRB7G20   30.14F
CORTEZ         FAIR      70  20  15 SW14G21   30.11F
PAGOSA SPRINGS FAIR      64  12  13 CALM      30.17F
TELLURIDE      FAIR      57  22  26 NE3       30.24F
WOLF CREEK PAS FAIR      46  18  31 S5        30.42S
$$

COZ009-010-012-014-032>034-037-058>063-222100-
...CENTRAL COLORADO...

CITY           SKY/WX    TMP DP  RH WIND       PRES   REMARKS
ASPEN          FAIR      58  31  35 N9        30.20F
BUENA VISTA    FAIR      61  19  19 NW5       30.18F
COPPER MTN     NOT AVBL
BERTHOUD PASS  PTSUNNY   28  18  64 NW14      30.39S WCI  17
COTTONWOOD PAS FAIR      57  23  26 E6        30.28F
GUNNISON       FAIR      57  24  28 SW3       30.20F
GRANBY         FAIR      51  32  47 NW3       30.25F
KREMMLING      FAIR      61  32  33 SW5       30.22F
LEADVILLE      FAIR      48  24  39 NW8G17    30.27R
MONARCH PASS   FAIR      41  25  52 SW10      30.48S
SALIDA         FAIR      64  19  18 N6        30.24F
SUNLIGHT       FAIR      37  28  70 CALM      30.38S
WILKERSON PASS PTSUNNY   43  27  52 CALM      30.38R
$$

COZ069>075-222100-
...SAN LUIS VALLEY/SANGRE DE CRISTO MOUNTAINS...

CITY           SKY/WX    TMP DP  RH WIND       PRES   REMARKS
ALAMOSA        FAIR      62  19  19 NE7       30.18F
DEL NORTE      FAIR      60  21  22 NE3       30.20F
LA VETA PASS   FAIR      50  28  43 N5        30.41S
SAGUACHE       NOT AVBL
$$

COZ035-036-038>040-222100-
...NORTHERN COLORADO FRONT RANGE...

CITY           SKY/WX    TMP DP  RH WIND       PRES   REMARKS
DENVER INTL AP FAIR      62  36  37 N12G22    30.15F
AURORA         MOSUNNY   62  29  29 NE13      30.16F
FRONT RANGE AP MOSUNNY   61  36  39 N13G21    30.16F
ERIE MUNI ARPT FAIR      61  36  39 N6        30.20F
BOULDER MUN AP FAIR      61  34  36 NE8       30.15F
CENTENNIAL     FAIR      61  30  31 N12       30.16F
BROOMFIELD     MOSUNNY   61  36  39 N7        30.17F
FORT COLLINS   FAIR      63  40  42 VRB5      30.15F
LONGMONT       FAIR      65  37  35 CALM      30.16F HAZE
$$

COZ041-046-047-076>085-087-088-222100-
...PIKES PEAK/PALMER DIVIDE AND SOUTHERN FOOTHILLS...

CITY           SKY/WX    TMP DP  RH WIND       PRES   REMARKS
COLO. SPRINGS  FAIR      64  30  27 N16G29    30.15F
A. F. ACADEMY  FAIR      61  28  28 N17G25    30.16S
SCHRIEVER AFB  NOT AVBL
CHEYENNE MTN   FAIR      59  26  28 NE14G20   30.13S
ELLICOTT         N/A    N/A N/A N/A NE18G28   30.15S
FALCON         FAIR      61  28  27 N10G18    30.20S
FORT CARSON    FAIR      66  31  27 N16G23    30.12F
LIMON          FAIR      60  34  37 N6        30.15F
MONUMENT HILL  FAIR      54  28  37 N16G23    30.21S
CANON CITY     FAIR      68  37  32 SE7       30.11F
WALSENBURG     NOT AVBL
TRINIDAD       FAIR      66  27  23 NE14G23   30.14F
$$

COZ042>045-048>051-090-091-222100-
...NORTHEAST COLORADO...

CITY           SKY/WX    TMP DP  RH WIND       PRES   REMARKS
GREELEY ARPT   FAIR      60  38  43 VRB5      30.15F
AKRON          FAIR      54  39  57 NE7       30.16F
BURLINGTON     CLOUDY    53  37  54 NE10      30.18F
WRAY           PTSUNNY   54  36  50 E7        30.19F
YUMA           FAIR      52  36  54 SE5       30.17F
STERLING       NOT AVBL
HOLYOKE        PTSUNNY   55  37  50 CALM      30.19F
FORT MORGAN    FAIR      60  34  38 E8        30.16F
$$

COZ086-089-092>099-222100-
...SOUTHEAST COLORADO...

CITY           SKY/WX    TMP DP  RH WIND       PRES   REMARKS
PUEBLO         FAIR      66  37  34 SE15      30.10F
LA JUNTA       FAIR      55  40  56 SE12      30.16F
LAMAR          FAIR      55  37  50 VRB3      30.17S
SPRINGFIELD      N/A     55  36  48 CALM      30.16F
$$



USA.gov is the U.S. government's official web portal to all federal, state and local government web resources and services.